Miscellaneous Local Product
Issued by NWS North Platte, NE

Home | Current Version | Previous Version | Text Only | Print | Product List | Glossary On
Versions: 1 2 3 4 5 6 7 8 9 10 11 12 13 14 15 16 17 18 19 20 21 22 23 24 25 26 27 28 29 30 31 32 33 34 35 36 37 38 39 40 41 42 43 44 45 46 47 48 49 50
000
AXUS43 KLBF 201610
MISLBF


WESTERN AND NORTH CENTRAL NEBRASKA HOURLY WEATHER ROUNDUP
NATIONAL WEATHER SERVICE NORTH PLATTE NE
1100 AM CDT SUN APR 20 2014

***STATIONS NOT REPORTING VARIABLES SUCH AS SKY/WEATHER OR
PRESSURE ARE PROVIDED BY THE NEBRASKA DEPARTMENT OF
ROADS...RAWS...AND APRS NETWORKS...AND ARE NOT UNDER
NATIONAL WEATHER SERVICE QUALITY CONTROL***

...OBSERVATIONS IN AND NEAR THE EASTERN PANHANDLE OF NEBRASKA...

CITY           SKY/WX    TMP DP  RH WIND       PRES   REMARKS
PINE RIDGE     SUNNY     65  44  46 S12       29.95R
CHADRON        SUNNY     66  44  45 W8        29.95R
ALLIANCE       SUNNY     66  43  43 SW12      29.99S
SIDNEY         PTSUNNY   63  44  50 S10       30.05S
WHITECLAY        N/A     63  43  48 S13         N/A
CRESCENT LAKE    N/A     63  47  55 S9          N/A
LISCO            N/A     68  43  40 S7          N/A
BIG SPRINGS      N/A     56  46  70 CALM        N/A
LEWELLEN         N/A     68  45  42 S6          N/A
$$

...OBSERVATIONS IN SOUTHWEST NEBRASKA AND FAR NORTHEAST COLORADO...

CITY           SKY/WX    TMP DP  RH WIND       PRES   REMARKS
WRAY           FAIR      57  48  72 NW3       30.03S
HOLYOKE        FAIR      64  46  52 CALM      30.03S
IMPERIAL         N/A     61  47  59 MISG      30.03R
OGALLALA       SUNNY     63  45  52 CALM      30.02S
NORTH PLATTE   MOSUNNY   63  45  51 VRB3      30.02S
MCCOOK         PTSUNNY   59  50  72 VRB5      30.01S
LEXINGTON      PTSUNNY   59  46  60 CALM      30.01R
PAXTON           N/A     54  44  70 CALM        N/A
SUTHERLAND       N/A     63  43  48 SE5         N/A
MEDICINE CREEK   N/A     55  49  79 CALM        N/A
GOTHENBURG       N/A     59  45  59 CALM        N/A
CALLAWAY         N/A     58  45  62 E5          N/A
$$

...OBSERVATIONS IN NORTH CENTRAL NEBRASKA...

CITY           SKY/WX    TMP DP  RH WIND       PRES   REMARKS
VALENTINE      SUNNY     66  39  37 S13       29.98S
THEDFORD       SUNNY     67  42  40 S10       30.02S
AINSWORTH      SUNNY     67  42  40 SE10      29.99S
O`NEILL        SUNNY     67  37  32 E6        29.99S
ORD            MOSUNNY   68  44  42 N6        29.98F
BROKEN BOW     CLOUDY    66  47  50 SE7       30.00S
BROWNLEE         N/A     67  40  37 S12         N/A
SPRINGVIEW       N/A     66  40  39 E8          N/A
DUNNING          N/A     67  45  44 S13         N/A
BREWSTER         N/A     69  45  41 S12         N/A
ROSE             N/A     71  48  43 E8          N/A
NEWPORT          N/A     67  42  39 E8          N/A
COMSTOCK         N/A     74  49  40 E3          N/A
CHAMBERS         N/A     64  41  43 SE3         N/A
EWING            N/A     67  45  44 E3G12       N/A
$$

...SOME WEATHER OBSERVATIONS FROM AROUND THE REGION...

CITY           SKY/WX    TMP DP  RH WIND       PRES   REMARKS
DENVER         PTSUNNY   54  45  71 W7        30.09R
LARAMIE        MOSUNNY   54  34  46 SW10      30.15R
CHEYENNE       SUNNY     62  33  33 NW15G25   30.09S
SCOTTSBLUFF    SUNNY     65  42  43 SW5       30.01S
RAPID CITY     SUNNY     63  37  38 VRB7      29.92R
PIERRE         SUNNY     64  31  28 SE13      29.95F
WINNER         FAIR      69  29  22 SE18      29.97S
SIOUX FALLS    MOSUNNY   70  31  23 E17       29.99S
OMAHA          CLOUDY    73  51  46 SW10      29.99S
GRAND ISLAND   PTSUNNY   70  51  51 W9        29.99F
KANSAS CITY    PTSUNNY   74  52  46 SW17      30.09S
WICHITA        CLOUDY    66  53  63 S16       30.08R
HAYS           CLOUDY    72  54  53 S16       30.02R
LIBERAL        SUNNY     66  54  63 S15       30.03S
GOODLAND       PTSUNNY   56  49  77 N7        30.01F
$$



USA.gov is the U.S. government's official web portal to all federal, state and local government web resources and services.